EZY37NU EGKK-LXGB

Flight info

Callsign EZY37NU
Flight time 2h 37m
Altitude 35000
Route NOVMA L620 SAM N621 LELNA DCT NOVAN/N0447F370 DCT DELOG DCT CRISA DCT VULPE DCT MAR N864 PIMOS
Aircraft A320/M-SDE2E3FGHIJ1RWXYZ/LB1

Departure

Time 2026-05-04 00:07
Airport London Gatwick Airport (EGKK)

Arrival

Time 2026-05-04 02:44
Airport Gibraltar Airport (LXGB)
Time Latitude Longitude Altitude Speed Heading
2026-05-03 23:18 51.15820 -0.17922 213 ft 0 kts 78°
2026-05-03 23:55 51.15818 -0.17933 216 ft 4 kts 78°
2026-05-03 23:55 51.15812 -0.17975 212 ft 4 kts 77°
2026-05-03 23:56 51.15806 -0.18016 214 ft 2 kts 77°
2026-05-03 23:56 51.15804 -0.18048 212 ft 4 kts 112°
2026-05-03 23:56 51.15819 -0.18070 214 ft 3 kts 167°
2026-05-03 23:56 51.15835 -0.18076 215 ft 0 kts 167°
2026-05-04 00:01 51.15818 -0.18069 215 ft 3 kts 165°
2026-05-04 00:01 51.15799 -0.18062 207 ft 3 kts 168°
2026-05-04 00:01 51.15781 -0.18056 206 ft 3 kts 169°
2026-05-04 00:01 51.15739 -0.18044 214 ft 8 kts 169°
2026-05-04 00:02 51.15698 -0.17985 206 ft 9 kts 98°
2026-05-04 00:02 51.15711 -0.17868 208 ft 14 kts 77°
2026-05-04 00:02 51.15737 -0.17679 215 ft 19 kts 78°
2026-05-04 00:02 51.15729 -0.17504 208 ft 13 kts 159°
2026-05-04 00:03 51.15639 -0.17470 209 ft 14 kts 167°
2026-05-04 00:03 51.15541 -0.17436 204 ft 15 kts 168°
2026-05-04 00:03 51.15436 -0.17400 208 ft 16 kts 168°
2026-05-04 00:03 51.15324 -0.17355 210 ft 17 kts 151°
2026-05-04 00:04 51.15325 -0.17190 207 ft 16 kts 76°
2026-05-04 00:04 51.15349 -0.17004 208 ft 19 kts 76°
2026-05-04 00:04 51.15378 -0.16793 213 ft 19 kts 77°
2026-05-04 00:04 51.15315 -0.16676 206 ft 16 kts 165°
2026-05-04 00:05 51.15270 -0.16660 204 ft 0 kts 168°
2026-05-04 00:05 51.15266 -0.16659 204 ft 4 kts 168°
2026-05-04 00:06 51.15201 -0.16637 205 ft 12 kts 167°
2026-05-04 00:06 51.15136 -0.16704 205 ft 15 kts 253°
2026-05-04 00:06 51.15086 -0.17063 212 ft 65 kts 257°
2026-05-04 00:06 51.14943 -0.18092 205 ft 123 kts 257°
2026-05-04 00:07 51.14727 -0.19673 234 ft 165 kts 256°
2026-05-04 00:07 51.14495 -0.21398 962 ft 155 kts 257°
2026-05-04 00:07 51.14263 -0.23086 1571 ft 160 kts 257°
2026-05-04 00:07 51.14007 -0.24925 1883 ft 181 kts 257°
2026-05-04 00:08 51.13719 -0.26988 2122 ft 202 kts 257°
2026-05-04 00:08 51.13395 -0.29302 2398 ft 226 kts 257°
2026-05-04 00:08 51.13036 -0.31873 2812 ft 248 kts 257°
2026-05-04 00:08 51.12657 -0.34601 3550 ft 256 kts 256°
2026-05-04 00:09 51.12265 -0.37413 3913 ft 260 kts 256°
2026-05-04 00:09 51.11876 -0.40221 3996 ft 259 kts 256°
2026-05-04 00:09 51.11444 -0.43002 4002 ft 258 kts 248°
2026-05-04 00:09 51.10673 -0.45587 4180 ft 261 kts 243°
2026-05-04 00:10 51.09865 -0.48173 5115 ft 261 kts 243°
2026-05-04 00:10 51.09053 -0.50770 6022 ft 263 kts 243°
2026-05-04 00:10 51.08237 -0.53382 6872 ft 265 kts 243°
2026-05-04 00:10 51.07414 -0.56022 7681 ft 268 kts 243°
2026-05-04 00:11 51.06581 -0.58692 8489 ft 271 kts 243°
2026-05-04 00:11 51.05827 -0.61102 9210 ft 274 kts 243°
2026-05-04 00:11 51.05185 -0.63971 9973 ft 279 kts 257°
2026-05-04 00:11 51.04785 -0.67005 10695 ft 282 kts 257°
2026-05-04 00:12 51.04377 -0.70069 11418 ft 285 kts 256°
2026-05-04 00:12 51.03959 -0.73167 12140 ft 288 kts 256°
2026-05-04 00:12 51.03537 -0.76293 12821 ft 294 kts 256°
2026-05-04 00:12 51.03244 -0.78453 12931 ft 309 kts 256°
2026-05-04 00:13 51.02775 -0.81908 13119 ft 329 kts 256°
2026-05-04 00:13 51.02125 -0.86703 13836 ft 339 kts 256°
2026-05-04 00:13 51.01789 -0.89176 14239 ft 341 kts 256°
2026-05-04 00:13 51.01121 -0.94083 15042 ft 344 kts 256°
2026-05-04 00:14 51.00613 -0.97805 15656 ft 347 kts 256°
2026-05-04 00:14 51.00265 -1.00343 16090 ft 349 kts 256°
2026-05-04 00:14 50.99747 -1.04119 16720 ft 351 kts 256°
2026-05-04 00:14 50.99230 -1.07871 17326 ft 354 kts 255°
2026-05-04 00:15 50.98522 -1.12993 18142 ft 357 kts 255°
2026-05-04 00:15 50.98166 -1.15550 18502 ft 359 kts 255°
2026-05-04 00:15 50.97627 -1.19423 19034 ft 360 kts 255°
2026-05-04 00:15 50.97086 -1.23315 19584 ft 362 kts 255°
2026-05-04 00:16 50.96543 -1.27223 20120 ft 363 kts 255°
2026-05-04 00:16 50.95946 -1.31123 20647 ft 364 kts 250°
2026-05-04 00:16 50.94952 -1.34803 21138 ft 363 kts 239°
2026-05-04 00:16 50.93531 -1.38112 21651 ft 364 kts 229°
2026-05-04 00:17 50.91866 -1.41144 22161 ft 365 kts 228°
2026-05-04 00:17 50.90195 -1.44172 22692 ft 366 kts 228°
2026-05-04 00:17 50.88517 -1.47213 23197 ft 367 kts 228°
2026-05-04 00:17 50.86831 -1.50263 23661 ft 369 kts 228°
2026-05-04 00:18 50.85135 -1.53324 24027 ft 371 kts 228°
2026-05-04 00:18 50.83428 -1.56401 24393 ft 373 kts 228°
2026-05-04 00:18 50.81709 -1.59496 24758 ft 376 kts 227°
2026-05-04 00:18 50.79982 -1.62610 25113 ft 378 kts 227°
2026-05-04 00:19 50.78243 -1.65742 25453 ft 380 kts 227°
2026-05-04 00:19 50.76494 -1.68890 25808 ft 382 kts 227°
2026-05-04 00:19 50.74731 -1.72053 26148 ft 385 kts 227°
2026-05-04 00:19 50.72955 -1.75228 26491 ft 387 kts 227°
2026-05-04 00:20 50.71167 -1.78419 26822 ft 389 kts 227°
2026-05-04 00:20 50.69335 -1.81572 27146 ft 391 kts 222°
2026-05-04 00:20 50.67218 -1.84258 27458 ft 392 kts 213°
2026-05-04 00:20 50.64819 -1.86312 27791 ft 394 kts 203°
2026-05-04 00:21 50.62226 -1.87766 28084 ft 397 kts 199°
2026-05-04 00:21 50.59637 -1.89112 28454 ft 398 kts 199°
2026-05-04 00:21 50.56968 -1.90498 28789 ft 399 kts 199°
2026-05-04 00:21 50.54322 -1.91872 29104 ft 401 kts 199°
2026-05-04 00:22 50.51707 -1.93236 29416 ft 403 kts 199°
2026-05-04 00:22 50.49037 -1.94626 29713 ft 405 kts 198°
2026-05-04 00:22 50.46354 -1.96022 29995 ft 407 kts 198°
2026-05-04 00:22 50.43658 -1.97422 30232 ft 409 kts 198°
2026-05-04 00:23 50.40948 -1.98823 30452 ft 411 kts 198°
2026-05-04 00:23 50.38227 -2.00228 30705 ft 412 kts 198°
2026-05-04 00:23 50.35504 -2.01634 30976 ft 412 kts 198°
2026-05-04 00:23 50.32782 -2.03037 31289 ft 412 kts 198°
2026-05-04 00:24 50.30061 -2.04436 31578 ft 412 kts 198°
2026-05-04 00:24 50.27337 -2.05835 31861 ft 412 kts 198°
2026-05-04 00:24 50.24578 -2.07054 32128 ft 413 kts 192°
2026-05-04 00:24 50.21723 -2.07617 32399 ft 414 kts 186°
2026-05-04 00:25 50.18848 -2.07984 32667 ft 415 kts 186°
2026-05-04 00:25 50.15971 -2.08358 32949 ft 415 kts 186°
2026-05-04 00:25 50.13098 -2.08732 33274 ft 414 kts 186°
2026-05-04 00:25 50.10227 -2.09104 33564 ft 414 kts 186°
2026-05-04 00:26 50.07363 -2.09474 33850 ft 414 kts 186°
2026-05-04 00:26 50.04485 -2.09845 34096 ft 415 kts 186°
2026-05-04 00:26 50.01607 -2.10216 34314 ft 415 kts 186°
2026-05-04 00:26 49.98733 -2.10667 34523 ft 415 kts 191°
2026-05-04 00:27 49.95933 -2.11728 34718 ft 414 kts 198°
2026-05-04 00:27 49.93175 -2.13035 34890 ft 414 kts 198°
2026-05-04 00:27 49.87697 -2.15602 34976 ft 409 kts 198°
2026-05-04 00:28 49.82263 -2.18129 34972 ft 407 kts 197°
2026-05-04 00:28 49.76873 -2.20633 34972 ft 407 kts 197°
2026-05-04 00:29 49.71448 -2.23148 34971 ft 406 kts 198°
2026-05-04 00:29 49.66046 -2.25651 34991 ft 405 kts 197°
2026-05-04 00:30 49.60633 -2.28147 34968 ft 407 kts 197°
2026-05-04 00:30 49.55204 -2.30650 34964 ft 408 kts 197°
2026-05-04 00:31 49.49766 -2.33164 34955 ft 408 kts 197°
2026-05-04 00:31 49.44333 -2.35655 34978 ft 407 kts 197°
2026-05-04 00:32 49.38903 -2.38137 34988 ft 407 kts 197°
2026-05-04 00:32 49.33480 -2.40618 34989 ft 406 kts 197°
2026-05-04 00:33 49.25353 -2.44310 34989 ft 406 kts 197°
2026-05-04 00:34 49.19943 -2.46765 34992 ft 405 kts 197°
2026-05-04 00:34 49.14552 -2.49214 34992 ft 404 kts 197°
2026-05-04 00:35 49.09159 -2.51644 34995 ft 404 kts 197°
2026-05-04 00:35 49.03770 -2.54072 34984 ft 403 kts 197°
2026-05-04 00:36 48.98397 -2.56497 34992 ft 402 kts 197°
2026-05-04 00:36 48.93038 -2.58903 34994 ft 401 kts 197°
2026-05-04 00:37 48.87685 -2.61290 34993 ft 401 kts 197°
2026-05-04 00:37 48.82338 -2.63682 34999 ft 401 kts 197°
2026-05-04 00:38 48.76979 -2.66087 34972 ft 402 kts 197°
2026-05-04 00:38 48.71607 -2.68488 34973 ft 403 kts 197°
2026-05-04 00:39 48.66223 -2.70869 34973 ft 403 kts 197°
2026-05-04 00:39 48.60841 -2.73251 34966 ft 403 kts 197°
2026-05-04 00:40 48.55455 -2.75637 34971 ft 403 kts 197°
2026-05-04 00:40 48.50070 -2.78006 34984 ft 403 kts 197°
2026-05-04 00:41 48.44687 -2.80363 34988 ft 403 kts 197°
2026-05-04 00:41 48.39309 -2.82731 34976 ft 403 kts 197°
2026-05-04 00:42 48.33934 -2.85098 34977 ft 402 kts 197°
2026-05-04 00:42 48.28561 -2.87453 34980 ft 402 kts 197°
2026-05-04 00:43 48.23187 -2.89794 34980 ft 402 kts 197°
2026-05-04 00:43 48.17818 -2.92117 34975 ft 402 kts 197°
2026-05-04 00:44 48.12481 -2.94428 34976 ft 402 kts 197°
2026-05-04 00:44 48.07074 -2.96768 34973 ft 402 kts 197°
2026-05-04 00:45 48.01665 -2.99109 34969 ft 414 kts 196°
2026-05-04 00:45 47.96056 -3.01532 34963 ft 425 kts 197°
2026-05-04 00:46 47.90308 -3.04015 34968 ft 434 kts 197°
2026-05-04 00:46 47.84497 -3.06514 34966 ft 435 kts 197°
2026-05-04 00:47 47.78680 -3.09005 34970 ft 435 kts 197°
2026-05-04 00:47 47.72859 -3.11482 34969 ft 434 kts 197°
2026-05-04 00:48 47.67055 -3.13965 34977 ft 434 kts 197°
2026-05-04 00:48 47.61251 -3.16441 34977 ft 434 kts 197°
2026-05-04 00:49 47.55449 -3.18900 34985 ft 434 kts 197°
2026-05-04 00:49 47.49643 -3.21365 34985 ft 434 kts 197°
2026-05-04 00:50 47.43839 -3.23818 34983 ft 434 kts 197°
2026-05-04 00:50 47.38036 -3.26267 34990 ft 434 kts 197°
2026-05-04 00:51 47.32234 -3.28707 34979 ft 434 kts 197°
2026-05-04 00:51 47.26467 -3.31121 35002 ft 434 kts 197°
2026-05-04 00:52 47.20650 -3.33549 34980 ft 435 kts 197°
2026-05-04 00:52 47.14813 -3.35984 34974 ft 437 kts 197°
2026-05-04 00:53 47.08964 -3.38425 34975 ft 437 kts 197°
2026-05-04 00:53 47.03112 -3.40872 34978 ft 438 kts 197°
2026-05-04 00:54 46.97244 -3.43311 34985 ft 438 kts 197°
2026-05-04 00:54 46.91369 -3.45736 34975 ft 439 kts 197°
2026-05-04 00:55 46.85500 -3.48167 34997 ft 438 kts 197°
2026-05-04 00:55 46.79634 -3.50581 35001 ft 438 kts 197°
2026-05-04 00:56 46.73773 -3.52985 35004 ft 437 kts 197°
2026-05-04 00:56 46.67915 -3.55386 35004 ft 437 kts 197°
2026-05-04 00:57 46.62059 -3.57786 35003 ft 437 kts 197°
2026-05-04 00:57 46.56208 -3.60172 35002 ft 437 kts 197°
2026-05-04 00:58 46.50352 -3.62558 35011 ft 437 kts 197°
2026-05-04 00:58 46.44489 -3.64941 34996 ft 438 kts 197°
2026-05-04 00:59 46.38651 -3.67318 34988 ft 439 kts 197°
2026-05-04 00:59 46.32755 -3.69674 34986 ft 440 kts 193°
2026-05-04 01:00 46.26659 -3.70749 34994 ft 442 kts 188°
2026-05-04 01:00 46.20549 -3.71660 35005 ft 441 kts 188°
2026-05-04 01:01 46.14446 -3.72575 35009 ft 441 kts 188°
2026-05-04 01:01 46.08353 -3.73474 35005 ft 440 kts 188°
2026-05-04 01:02 46.02260 -3.74381 35008 ft 440 kts 188°
2026-05-04 01:02 45.97197 -3.75127 35010 ft 440 kts 188°
2026-05-04 01:03 45.91114 -3.76022 35009 ft 439 kts 188°
2026-05-04 01:03 45.85036 -3.76923 35010 ft 439 kts 188°
2026-05-04 01:04 45.78967 -3.77824 35013 ft 438 kts 188°
2026-05-04 01:04 45.72911 -3.78722 35013 ft 438 kts 188°
2026-05-04 01:05 45.66851 -3.79605 35007 ft 437 kts 188°
2026-05-04 01:05 45.60800 -3.80483 35015 ft 437 kts 188°
2026-05-04 01:06 45.54757 -3.81364 35015 ft 436 kts 188°
2026-05-04 01:06 45.48716 -3.82240 35014 ft 436 kts 188°
2026-05-04 01:07 45.42680 -3.83124 35014 ft 436 kts 188°
2026-05-04 01:07 45.36644 -3.84003 35013 ft 436 kts 188°
2026-05-04 01:08 45.30609 -3.84879 34994 ft 436 kts 188°
2026-05-04 01:08 45.24578 -3.85755 35012 ft 435 kts 188°
2026-05-04 01:09 45.18551 -3.86611 35017 ft 436 kts 188°
2026-05-04 01:09 45.12508 -3.87473 35006 ft 437 kts 188°
2026-05-04 01:10 45.06460 -3.88342 35007 ft 437 kts 188°
2026-05-04 01:10 45.00451 -3.89203 35009 ft 437 kts 188°
2026-05-04 01:11 44.94401 -3.90064 35010 ft 437 kts 188°
2026-05-04 01:11 44.88351 -3.90929 35006 ft 437 kts 188°
2026-05-04 01:12 44.82311 -3.91786 35012 ft 437 kts 188°
2026-05-04 01:12 44.76266 -3.92646 35015 ft 436 kts 188°
2026-05-04 01:13 44.70223 -3.93505 35018 ft 436 kts 188°
2026-05-04 01:13 44.64180 -3.94353 35019 ft 436 kts 188°
2026-05-04 01:14 44.58137 -3.95203 35016 ft 436 kts 188°
2026-05-04 01:14 44.52096 -3.96050 35008 ft 436 kts 188°
2026-05-04 01:15 44.46057 -3.96890 35015 ft 436 kts 188°
2026-05-04 01:15 44.40024 -3.97744 35027 ft 436 kts 188°
2026-05-04 01:16 44.33992 -3.98600 35012 ft 436 kts 188°
2026-05-04 01:16 44.27963 -3.99376 35016 ft 436 kts 188°
2026-05-04 01:17 44.21919 -4.00037 35029 ft 436 kts 187°
2026-05-04 01:17 44.15877 -4.00695 35026 ft 435 kts 187°
2026-05-04 01:18 44.09840 -4.01380 35010 ft 435 kts 188°
2026-05-04 01:18 44.03806 -4.02078 35016 ft 435 kts 188°
2026-05-04 01:19 43.97773 -4.02767 35018 ft 435 kts 188°
2026-05-04 01:19 43.91740 -4.03450 35011 ft 435 kts 188°
2026-05-04 01:20 43.85747 -4.04130 35017 ft 435 kts 188°
2026-05-04 01:20 43.79669 -4.04812 35022 ft 435 kts 188°
2026-05-04 01:21 43.73680 -4.05489 35020 ft 435 kts 188°
2026-05-04 01:21 43.67644 -4.06169 35017 ft 435 kts 188°
2026-05-04 01:22 43.61609 -4.06843 35020 ft 435 kts 188°
2026-05-04 01:22 43.55575 -4.07518 35002 ft 435 kts 188°
2026-05-04 01:23 43.49541 -4.08187 35011 ft 435 kts 188°
2026-05-04 01:23 43.43509 -4.08863 35014 ft 435 kts 188°
2026-05-04 01:24 43.37476 -4.09538 35016 ft 435 kts 188°
2026-05-04 01:24 43.31444 -4.10212 35009 ft 435 kts 188°
2026-05-04 01:25 43.25419 -4.10886 35019 ft 435 kts 188°
2026-05-04 01:25 43.19388 -4.11549 35023 ft 435 kts 188°
2026-05-04 01:26 43.13357 -4.12213 35010 ft 435 kts 188°
2026-05-04 01:26 43.07337 -4.12880 35015 ft 434 kts 188°
2026-05-04 01:27 43.01323 -4.13543 35019 ft 434 kts 188°
2026-05-04 01:27 42.95309 -4.14209 35028 ft 433 kts 188°
2026-05-04 01:28 42.89301 -4.14873 35016 ft 433 kts 189°
2026-05-04 01:28 42.83298 -4.15528 35016 ft 433 kts 189°
2026-05-04 01:29 42.77300 -4.16180 35011 ft 432 kts 189°
2026-05-04 01:29 42.71350 -4.16828 35012 ft 432 kts 189°
2026-05-04 01:30 42.65357 -4.17481 35008 ft 432 kts 189°
2026-05-04 01:30 42.59364 -4.18129 35006 ft 432 kts 189°
2026-05-04 01:31 42.53372 -4.18784 34984 ft 432 kts 189°
2026-05-04 01:31 42.47377 -4.19429 34988 ft 432 kts 189°
2026-05-04 01:32 42.41377 -4.20077 34990 ft 433 kts 189°
2026-05-04 01:32 42.35374 -4.20725 34995 ft 433 kts 189°
2026-05-04 01:33 42.29376 -4.21367 34986 ft 433 kts 189°
2026-05-04 01:33 42.23375 -4.22015 34994 ft 432 kts 189°
2026-05-04 01:34 42.17374 -4.22662 35002 ft 433 kts 189°
2026-05-04 01:34 42.11374 -4.23296 34986 ft 432 kts 189°
2026-05-04 01:35 42.05383 -4.23934 35003 ft 431 kts 189°
2026-05-04 01:35 41.99401 -4.24574 35011 ft 431 kts 189°
2026-05-04 01:36 41.93425 -4.25210 35015 ft 431 kts 189°
2026-05-04 01:36 41.87454 -4.25849 35001 ft 430 kts 190°
2026-05-04 01:37 41.81491 -4.26483 35011 ft 430 kts 190°
2026-05-04 01:37 41.75580 -4.27109 35016 ft 429 kts 189°
2026-05-04 01:38 41.69626 -4.27732 35013 ft 429 kts 189°
2026-05-04 01:38 41.63678 -4.28357 35007 ft 428 kts 190°
2026-05-04 01:39 41.57739 -4.28974 35019 ft 428 kts 190°
2026-05-04 01:39 41.51807 -4.29596 35022 ft 427 kts 190°
2026-05-04 01:40 41.45879 -4.30218 35003 ft 427 kts 191°
2026-05-04 01:40 41.39958 -4.30838 35015 ft 427 kts 191°
2026-05-04 01:41 41.34041 -4.31452 35021 ft 426 kts 191°
2026-05-04 01:41 41.28136 -4.32065 35023 ft 426 kts 191°
2026-05-04 01:42 41.22229 -4.32683 35013 ft 426 kts 191°
2026-05-04 01:42 41.16327 -4.33304 35026 ft 425 kts 191°
2026-05-04 01:43 41.10428 -4.33917 35023 ft 425 kts 191°
2026-05-04 01:43 41.04531 -4.34530 35011 ft 425 kts 191°
2026-05-04 01:44 40.98639 -4.35139 35028 ft 424 kts 191°
2026-05-04 01:44 40.92753 -4.35747 35033 ft 424 kts 191°
2026-05-04 01:45 40.86908 -4.36350 35031 ft 424 kts 191°
2026-05-04 01:45 40.78095 -4.37247 35015 ft 423 kts 191°
2026-05-04 01:46 40.72222 -4.37848 35020 ft 423 kts 192°
2026-05-04 01:46 40.66352 -4.38451 35025 ft 423 kts 191°
2026-05-04 01:47 40.60485 -4.39059 35025 ft 423 kts 191°
2026-05-04 01:47 40.54616 -4.39655 35023 ft 423 kts 191°
2026-05-04 01:48 40.48747 -4.40249 35023 ft 423 kts 191°
2026-05-04 01:48 40.42882 -4.40848 35023 ft 423 kts 191°
2026-05-04 01:49 40.37021 -4.41445 34988 ft 423 kts 192°
2026-05-04 01:49 40.31158 -4.42034 35005 ft 422 kts 192°
2026-05-04 01:50 40.25297 -4.42614 35010 ft 422 kts 192°
2026-05-04 01:50 40.19440 -4.43201 35011 ft 422 kts 192°
2026-05-04 01:51 40.13628 -4.43792 34994 ft 422 kts 192°
2026-05-04 01:51 40.07774 -4.44383 35002 ft 422 kts 192°
2026-05-04 01:52 40.01921 -4.44976 35009 ft 422 kts 192°
2026-05-04 01:52 39.97022 -4.45465 35009 ft 422 kts 192°
2026-05-04 01:53 39.91208 -4.46044 34986 ft 422 kts 192°
2026-05-04 01:53 39.85357 -4.46623 35004 ft 422 kts 192°
2026-05-04 01:54 39.79508 -4.47209 35014 ft 421 kts 192°
2026-05-04 01:54 39.73660 -4.47793 35021 ft 422 kts 192°
2026-05-04 01:55 39.67812 -4.48372 35007 ft 421 kts 193°
2026-05-04 01:55 39.61971 -4.48950 35015 ft 421 kts 193°
2026-05-04 01:56 39.56142 -4.49528 35012 ft 420 kts 193°
2026-05-04 01:56 39.50304 -4.50114 35020 ft 421 kts 193°
2026-05-04 01:57 39.44467 -4.50689 34997 ft 421 kts 193°
2026-05-04 01:57 39.38626 -4.51266 35007 ft 421 kts 193°
2026-05-04 01:58 39.32781 -4.51834 35016 ft 421 kts 193°
2026-05-04 01:58 39.26939 -4.52403 35021 ft 421 kts 193°
2026-05-04 01:59 39.21097 -4.52969 35002 ft 421 kts 193°
2026-05-04 01:59 39.15293 -4.53541 35006 ft 421 kts 193°
2026-05-04 02:00 39.09410 -4.54126 35015 ft 421 kts 193°
2026-05-04 02:00 39.03569 -4.54694 35016 ft 421 kts 193°
2026-05-04 02:01 38.97727 -4.55256 34986 ft 421 kts 193°
2026-05-04 02:01 38.91938 -4.55898 34998 ft 418 kts 195°
2026-05-04 02:02 38.86215 -4.57031 35000 ft 415 kts 198°
2026-05-04 02:02 38.80542 -4.58367 35020 ft 415 kts 198°
2026-05-04 02:03 38.74850 -4.59631 35006 ft 416 kts 198°
2026-05-04 02:03 38.69134 -4.60810 35015 ft 416 kts 198°
2026-05-04 02:04 38.63420 -4.61969 35018 ft 416 kts 198°
2026-05-04 02:04 38.57708 -4.63144 35015 ft 415 kts 198°
2026-05-04 02:05 38.52005 -4.64329 34994 ft 415 kts 198°
2026-05-04 02:05 38.46307 -4.65507 35002 ft 415 kts 198°
2026-05-04 02:06 38.40609 -4.66680 35007 ft 415 kts 198°
2026-05-04 02:06 38.34906 -4.67851 35010 ft 415 kts 198°
2026-05-04 02:07 38.29201 -4.69026 35013 ft 415 kts 198°
2026-05-04 02:07 38.23491 -4.70204 35021 ft 416 kts 198°
2026-05-04 02:08 38.17778 -4.71381 35024 ft 416 kts 198°
2026-05-04 02:08 38.12068 -4.72551 35028 ft 416 kts 198°
2026-05-04 02:09 38.06355 -4.73716 35008 ft 416 kts 198°
2026-05-04 02:09 38.00643 -4.74872 35012 ft 416 kts 198°
2026-05-04 02:10 37.94928 -4.76022 35017 ft 416 kts 198°
2026-05-04 02:10 37.89213 -4.77175 35016 ft 416 kts 198°
2026-05-04 02:11 37.83497 -4.78340 35011 ft 417 kts 198°
2026-05-04 02:11 37.77785 -4.79509 35018 ft 419 kts 198°
2026-05-04 02:12 37.72031 -4.80678 35022 ft 419 kts 198°
2026-05-04 02:12 37.66280 -4.81837 35022 ft 419 kts 198°
2026-05-04 02:13 37.60521 -4.82993 34987 ft 419 kts 198°
2026-05-04 02:13 37.54757 -4.84153 34998 ft 420 kts 198°
2026-05-04 02:14 37.48983 -4.85314 35008 ft 420 kts 198°
2026-05-04 02:14 37.43203 -4.86467 35013 ft 421 kts 198°
2026-05-04 02:15 37.37422 -4.87623 34978 ft 421 kts 198°
2026-05-04 02:15 37.31637 -4.88789 35012 ft 421 kts 198°
2026-05-04 02:16 37.25842 -4.89949 35022 ft 422 kts 198°
2026-05-04 02:16 37.20050 -4.91100 35028 ft 422 kts 198°
2026-05-04 02:17 37.14252 -4.92253 35031 ft 422 kts 198°
2026-05-04 02:17 37.08456 -4.93399 35018 ft 421 kts 198°
2026-05-04 02:18 37.02572 -4.93866 35026 ft 422 kts 188°
2026-05-04 02:18 36.99688 -4.93714 34919 ft 408 kts 188°
2026-05-04 02:18 36.96893 -4.93547 34698 ft 397 kts 188°
2026-05-04 02:19 36.94155 -4.93384 34310 ft 391 kts 188°
2026-05-04 02:19 36.91451 -4.93233 33862 ft 387 kts 188°
2026-05-04 02:19 36.88779 -4.93096 33321 ft 382 kts 189°
2026-05-04 02:19 36.86134 -4.92965 32809 ft 378 kts 189°
2026-05-04 02:20 36.83514 -4.92837 32294 ft 375 kts 189°
2026-05-04 02:20 36.80914 -4.92709 31831 ft 372 kts 188°
2026-05-04 02:20 36.78337 -4.92580 31367 ft 369 kts 188°
2026-05-04 02:20 36.75778 -4.92450 30917 ft 367 kts 188°
2026-05-04 02:21 36.73238 -4.92322 30469 ft 364 kts 188°
2026-05-04 02:21 36.70715 -4.92194 29996 ft 361 kts 188°
2026-05-04 02:21 36.68245 -4.92067 29465 ft 359 kts 188°
2026-05-04 02:21 36.65760 -4.91938 28945 ft 356 kts 188°
2026-05-04 02:22 36.63294 -4.91810 28422 ft 353 kts 188°
2026-05-04 02:22 36.60846 -4.91683 27941 ft 351 kts 187°
2026-05-04 02:22 36.58389 -4.91556 27446 ft 348 kts 187°
2026-05-04 02:22 36.56010 -4.91434 26991 ft 345 kts 187°
2026-05-04 02:23 36.53627 -4.91311 26285 ft 341 kts 187°
2026-05-04 02:23 36.51276 -4.91190 25563 ft 336 kts 187°
2026-05-04 02:23 36.48948 -4.91073 24920 ft 335 kts 187°
2026-05-04 02:23 36.46630 -4.90958 24506 ft 332 kts 187°
2026-05-04 02:24 36.44330 -4.90840 24096 ft 330 kts 187°
2026-05-04 02:24 36.42047 -4.90723 23686 ft 327 kts 186°
2026-05-04 02:24 36.39777 -4.90608 23187 ft 325 kts 186°
2026-05-04 02:24 36.37524 -4.90495 22727 ft 323 kts 186°
2026-05-04 02:25 36.35277 -4.90383 22116 ft 325 kts 186°
2026-05-04 02:25 36.33014 -4.90271 21415 ft 323 kts 186°
2026-05-04 02:25 36.30786 -4.90155 20735 ft 318 kts 186°
2026-05-04 02:25 36.28597 -4.90039 20079 ft 312 kts 186°
2026-05-04 02:26 36.26445 -4.89925 19420 ft 308 kts 186°
2026-05-04 02:26 36.24317 -4.89813 18789 ft 304 kts 186°
2026-05-04 02:26 36.22212 -4.89704 18073 ft 302 kts 185°
2026-05-04 02:26 36.20099 -4.89599 17147 ft 305 kts 185°
2026-05-04 02:27 36.17966 -4.89495 16253 ft 308 kts 185°
2026-05-04 02:27 36.15817 -4.89390 15381 ft 310 kts 184°
2026-05-04 02:27 36.13657 -4.89283 14526 ft 311 kts 184°
2026-05-04 02:27 36.11491 -4.89174 13682 ft 312 kts 184°
2026-05-04 02:28 36.09324 -4.89078 12772 ft 311 kts 184°
2026-05-04 02:28 36.07159 -4.88913 11875 ft 315 kts 174°
2026-05-04 02:28 36.05102 -4.87875 11013 ft 328 kts 150°
2026-05-04 02:28 36.03482 -4.85852 10162 ft 339 kts 127°
2026-05-04 02:29 36.02585 -4.83147 9280 ft 345 kts 104°
2026-05-04 02:29 36.02214 -4.80226 8382 ft 345 kts 96°
2026-05-04 02:29 36.02471 -4.77292 7514 ft 346 kts 72°
2026-05-04 02:29 36.03584 -4.74680 6669 ft 343 kts 53°
2026-05-04 02:30 36.05027 -4.72359 5798 ft 340 kts 51°
2026-05-04 02:30 36.06472 -4.70118 4935 ft 336 kts 50°
2026-05-04 02:30 36.08030 -4.68027 4260 ft 323 kts 34°
2026-05-04 02:30 36.09947 -4.66901 4075 ft 289 kts
2026-05-04 02:31 36.11809 -4.66937 3994 ft 251 kts 338°
2026-05-04 02:31 36.13195 -4.67962 4000 ft 221 kts 306°
2026-05-04 02:31 36.13824 -4.69586 4003 ft 208 kts 277°
2026-05-04 02:31 36.13987 -4.71355 4010 ft 206 kts 271°
2026-05-04 02:32 36.14069 -4.73108 3764 ft 203 kts 270°
2026-05-04 02:32 36.14135 -4.74846 3522 ft 200 kts 270°
2026-05-04 02:32 36.14194 -4.76527 3394 ft 192 kts 271°
2026-05-04 02:32 36.14238 -4.78148 3268 ft 185 kts 270°
2026-05-04 02:33 36.14279 -4.79718 3145 ft 180 kts 271°
2026-05-04 02:33 36.14312 -4.81253 3062 ft 177 kts 270°
2026-05-04 02:33 36.14344 -4.82774 2880 ft 177 kts 271°
2026-05-04 02:33 36.14371 -4.84283 2694 ft 175 kts 270°
2026-05-04 02:34 36.14390 -4.85767 2565 ft 168 kts 270°
2026-05-04 02:34 36.14400 -4.87193 2304 ft 165 kts 270°
2026-05-04 02:34 36.14404 -4.88606 2056 ft 163 kts 271°
2026-05-04 02:34 36.14395 -4.90008 2013 ft 163 kts 270°
2026-05-04 02:35 36.14387 -4.91412 2016 ft 163 kts 270°
2026-05-04 02:35 36.14387 -4.92776 2011 ft 156 kts 270°
2026-05-04 02:35 36.14391 -4.94109 2019 ft 154 kts 270°
2026-05-04 02:35 36.14396 -4.95420 2006 ft 149 kts 271°
2026-05-04 02:36 36.14429 -4.96699 2008 ft 148 kts 277°
2026-05-04 02:36 36.14584 -4.97964 2013 ft 149 kts 280°
2026-05-04 02:36 36.14762 -4.99222 2017 ft 148 kts 280°
2026-05-04 02:36 36.14939 -5.00475 2013 ft 147 kts 281°
2026-05-04 02:37 36.15109 -5.01717 2009 ft 146 kts 280°
2026-05-04 02:37 36.15267 -5.02959 2013 ft 146 kts 277°
2026-05-04 02:37 36.15302 -5.04215 2012 ft 146 kts 271°
2026-05-04 02:37 36.15286 -5.05475 2014 ft 147 kts 272°
2026-05-04 02:38 36.15298 -5.06741 2012 ft 147 kts 272°
2026-05-04 02:38 36.15315 -5.08000 2010 ft 146 kts 273°
2026-05-04 02:38 36.15332 -5.09252 2007 ft 142 kts 272°
2026-05-04 02:38 36.15348 -5.10450 2021 ft 138 kts 272°
2026-05-04 02:39 36.15364 -5.11635 2013 ft 138 kts 273°
2026-05-04 02:39 36.15380 -5.12826 2015 ft 139 kts 273°
2026-05-04 02:39 36.15400 -5.14020 2012 ft 139 kts 274°
2026-05-04 02:39 36.15428 -5.14807 2014 ft 137 kts 274°
2026-05-04 02:40 36.15463 -5.15976 2013 ft 136 kts 272°
2026-05-04 02:40 36.15484 -5.17140 2010 ft 135 kts 272°
2026-05-04 02:40 36.15492 -5.18307 2011 ft 136 kts 271°
2026-05-04 02:40 36.15491 -5.19485 2010 ft 138 kts 271°
2026-05-04 02:41 36.15483 -5.20672 2011 ft 138 kts 271°
2026-05-04 02:41 36.15469 -5.21840 2008 ft 133 kts 271°
2026-05-04 02:41 36.15451 -5.22956 1739 ft 129 kts 271°
2026-05-04 02:41 36.15429 -5.24076 1365 ft 130 kts 270°
2026-05-04 02:42 36.15405 -5.25184 1049 ft 129 kts 269°
2026-05-04 02:42 36.15377 -5.26300 1014 ft 130 kts 269°
2026-05-04 02:42 36.15360 -5.27419 1011 ft 130 kts 270°
2026-05-04 02:42 36.15367 -5.28541 916 ft 131 kts 270°
2026-05-04 02:43 36.15311 -5.29664 725 ft 131 kts 265°
2026-05-04 02:43 36.15261 -5.30786 567 ft 132 kts 270°
2026-05-04 02:43 36.15217 -5.31910 363 ft 131 kts 266°
2026-05-04 02:43 36.15186 -5.33037 180 ft 131 kts 265°
2026-05-04 02:44 36.15143 -5.34163 31 ft 131 kts 267°
2026-05-04 02:44 36.15108 -5.35201 19 ft 97 kts 268°
2026-05-04 02:44 36.15093 -5.35659 17 ft 10 kts 267°
2026-05-04 02:44 36.15091 -5.35723 17 ft 12 kts 267°
2026-05-04 02:45 36.15081 -5.35840 18 ft 15 kts 248°
2026-05-04 02:45 36.15071 -5.35946 16 ft 13 kts 344°
2026-05-04 02:45 36.15086 -5.35851 17 ft 19 kts 96°
2026-05-04 02:45 36.15094 -5.35580 18 ft 41 kts 88°
2026-05-04 02:46 36.15109 -5.35199 20 ft 44 kts 87°
2026-05-04 02:46 36.15122 -5.34825 19 ft 42 kts 87°
2026-05-04 02:46 36.15175 -5.34677 18 ft 5 kts 351°
2026-05-04 02:46 36.15187 -5.34681 18 ft 1 kts 352°
2026-05-04 02:47 36.15189 -5.34681 18 ft 0 kts 353°
2026-05-04 02:48 36.15206 -5.34678 18 ft 4 kts 15°
2026-05-04 02:48 36.15231 -5.34671 18 ft 3 kts
2026-05-04 02:48 36.15250 -5.34671 18 ft 2 kts 359°
2026-05-04 02:49 36.15265 -5.34672 18 ft 2 kts 354°
2026-05-04 02:49 36.15276 -5.34674 18 ft 1 kts 354°
2026-05-04 02:49 36.15282 -5.34674 18 ft 1 kts 355°
2026-05-04 02:49 36.15286 -5.34675 18 ft 1 kts 356°
2026-05-04 02:50 36.15292 -5.34675 18 ft 1 kts 356°
2026-05-04 02:50 36.15300 -5.34675 18 ft 1 kts 357°
2026-05-04 02:50 36.15302 -5.34676 18 ft 0 kts 357°